SWA114 KSAT-KDEN

Flight info

Callsign SWA114
Flight time 1h 49m
Altitude 40000
Route YODUH2 PRTZY PNH ZIGEE NIIXX4
Aircraft B737/M-SDE2E3FGHIRWXY/LB1

Departure

Time 2026-05-08 15:01
Airport San Antonio International Airport (KSAT)

Arrival

Time 2026-05-08 16:51
Airport Denver International Airport (KDEN)
Time Latitude Longitude Altitude Speed Heading
2026-05-08 14:29 29.52708 -98.47121 805 ft 0 kts 148°
2026-05-08 14:49 29.52714 -98.47126 796 ft 3 kts 146°
2026-05-08 14:49 29.52733 -98.47138 796 ft 3 kts 157°
2026-05-08 14:49 29.52754 -98.47147 795 ft 3 kts 154°
2026-05-08 14:50 29.52769 -98.47158 795 ft 3 kts 97°
2026-05-08 14:50 29.52769 -98.47163 795 ft 1 kts 75°
2026-05-08 14:55 29.52772 -98.47152 794 ft 3 kts 72°
2026-05-08 14:56 29.52789 -98.47121 795 ft 6 kts 47°
2026-05-08 14:56 29.52826 -98.47083 795 ft 8 kts 42°
2026-05-08 14:56 29.52862 -98.47033 795 ft 8 kts 69°
2026-05-08 14:56 29.52879 -98.46968 795 ft 9 kts 92°
2026-05-08 14:57 29.52847 -98.46906 795 ft 11 kts 133°
2026-05-08 14:57 29.52790 -98.46836 795 ft 13 kts 131°
2026-05-08 14:57 29.52716 -98.46789 795 ft 13 kts 200°
2026-05-08 14:57 29.52642 -98.46846 795 ft 13 kts 222°
2026-05-08 14:58 29.52577 -98.46915 795 ft 12 kts 221°
2026-05-08 14:58 29.52511 -98.46977 795 ft 12 kts 219°
2026-05-08 14:58 29.52447 -98.47039 795 ft 12 kts 221°
2026-05-08 14:58 29.52405 -98.47062 795 ft 1 kts 179°
2026-05-08 14:59 29.52398 -98.47061 795 ft 1 kts 170°
2026-05-08 14:59 29.52393 -98.47059 795 ft 0 kts 159°
2026-05-08 15:00 29.52364 -98.47029 794 ft 9 kts 131°
2026-05-08 15:00 29.52356 -98.46966 794 ft 9 kts 62°
2026-05-08 15:00 29.52399 -98.46916 794 ft 9 kts 40°
2026-05-08 15:00 29.52489 -98.46826 794 ft 43 kts 41°
2026-05-08 15:01 29.52907 -98.46414 795 ft 112 kts 40°
2026-05-08 15:01 29.53642 -98.45699 864 ft 158 kts 40°
2026-05-08 15:01 29.54522 -98.44799 1267 ft 181 kts 43°
2026-05-08 15:01 29.55501 -98.43787 1643 ft 204 kts 42°
2026-05-08 15:02 29.56608 -98.42674 1788 ft 216 kts 41°
2026-05-08 15:02 29.57765 -98.41533 1905 ft 223 kts 41°
2026-05-08 15:02 29.58996 -98.40443 2120 ft 228 kts 25°
2026-05-08 15:02 29.60570 -98.40162 2427 ft 233 kts
2026-05-08 15:03 29.62212 -98.40169 2780 ft 238 kts
2026-05-08 15:03 29.63874 -98.40179 3241 ft 239 kts 359°
2026-05-08 15:03 29.65548 -98.40178 3683 ft 241 kts 359°
2026-05-08 15:03 29.67242 -98.40167 3967 ft 250 kts 359°
2026-05-08 15:04 29.69049 -98.40147 4150 ft 271 kts 360°
2026-05-08 15:04 29.70978 -98.40117 4870 ft 281 kts
2026-05-08 15:04 29.72949 -98.40080 5787 ft 284 kts 360°
2026-05-08 15:04 29.74942 -98.40039 6684 ft 289 kts
2026-05-08 15:05 29.76967 -98.39993 7551 ft 293 kts 359°
2026-05-08 15:05 29.79019 -98.39946 8491 ft 297 kts 359°
2026-05-08 15:05 29.81098 -98.39897 9457 ft 300 kts 358°
2026-05-08 15:05 29.83202 -98.39846 10350 ft 307 kts 358°
2026-05-08 15:06 29.85413 -98.39797 10741 ft 332 kts 358°
2026-05-08 15:06 29.87825 -98.39743 11009 ft 358 kts 358°
2026-05-08 15:06 29.90317 -98.39681 11663 ft 367 kts 358°
2026-05-08 15:06 29.92886 -98.39614 12526 ft 371 kts 358°
2026-05-08 15:07 29.95474 -98.39546 13437 ft 373 kts 358°
2026-05-08 15:07 29.98087 -98.39480 14267 ft 378 kts 358°
2026-05-08 15:07 30.00730 -98.39415 15027 ft 383 kts 358°
2026-05-08 15:07 30.03415 -98.39350 15814 ft 389 kts 358°
2026-05-08 15:08 30.06121 -98.39501 16590 ft 390 kts 347°
2026-05-08 15:08 30.07880 -98.39919 17126 ft 389 kts 340°
2026-05-08 15:08 30.11240 -98.41437 18206 ft 388 kts 328°
2026-05-08 15:08 30.13658 -98.42862 18928 ft 391 kts 327°
2026-05-08 15:09 30.16067 -98.44327 19704 ft 392 kts 326°
2026-05-08 15:09 30.18494 -98.45811 20413 ft 396 kts 326°
2026-05-08 15:09 30.20941 -98.47302 21077 ft 400 kts 325°
2026-05-08 15:09 30.23428 -98.48808 21708 ft 405 kts 325°
2026-05-08 15:10 30.25911 -98.50303 22330 ft 410 kts 324°
2026-05-08 15:10 30.28456 -98.51828 22954 ft 414 kts 324°
2026-05-08 15:10 30.31025 -98.53364 23561 ft 418 kts 324°
2026-05-08 15:10 30.33619 -98.54915 24047 ft 422 kts 324°
2026-05-08 15:11 30.36233 -98.56476 24545 ft 425 kts 324°
2026-05-08 15:11 30.38873 -98.58053 25049 ft 429 kts 323°
2026-05-08 15:11 30.41533 -98.59643 25549 ft 432 kts 323°
2026-05-08 15:11 30.44214 -98.61247 26043 ft 435 kts 323°
2026-05-08 15:12 30.46915 -98.62864 26510 ft 439 kts 323°
2026-05-08 15:12 30.49639 -98.64496 26960 ft 442 kts 323°
2026-05-08 15:12 30.52381 -98.66141 27408 ft 446 kts 323°
2026-05-08 15:12 30.55147 -98.67800 27841 ft 449 kts 323°
2026-05-08 15:13 30.57926 -98.69468 28267 ft 452 kts 323°
2026-05-08 15:13 30.60736 -98.71156 28685 ft 456 kts 323°
2026-05-08 15:13 30.63555 -98.72851 29086 ft 459 kts 323°
2026-05-08 15:13 30.66367 -98.74542 29475 ft 463 kts 323°
2026-05-08 15:14 30.69230 -98.76265 29930 ft 464 kts 323°
2026-05-08 15:14 30.72106 -98.77996 30302 ft 466 kts 323°
2026-05-08 15:14 30.74989 -98.79732 30647 ft 468 kts 322°
2026-05-08 15:14 30.77882 -98.81476 31024 ft 469 kts 322°
2026-05-08 15:15 30.80774 -98.83219 31493 ft 467 kts 322°
2026-05-08 15:15 30.83647 -98.84949 32036 ft 464 kts 322°
2026-05-08 15:15 30.86507 -98.86673 32581 ft 461 kts 322°
2026-05-08 15:15 30.89345 -98.88387 33078 ft 459 kts 321°
2026-05-08 15:16 30.92176 -98.90101 33531 ft 458 kts 321°
2026-05-08 15:16 30.94995 -98.91810 34017 ft 456 kts 321°
2026-05-08 15:16 30.97803 -98.93511 34455 ft 453 kts 321°
2026-05-08 15:16 31.00596 -98.95205 34832 ft 452 kts 321°
2026-05-08 15:17 31.03385 -98.96899 35145 ft 452 kts 321°
2026-05-08 15:17 31.06174 -98.98596 35461 ft 452 kts 321°
2026-05-08 15:17 31.08959 -99.00288 35837 ft 450 kts 321°
2026-05-08 15:17 31.11733 -99.01974 36211 ft 449 kts 321°
2026-05-08 15:18 31.14494 -99.03654 36532 ft 448 kts 321°
2026-05-08 15:18 31.17223 -99.05317 36816 ft 448 kts 321°
2026-05-08 15:18 31.19986 -99.07001 37149 ft 447 kts 321°
2026-05-08 15:18 31.22737 -99.08679 37555 ft 446 kts 320°
2026-05-08 15:19 31.25479 -99.10351 37874 ft 445 kts 320°
2026-05-08 15:19 31.28220 -99.12026 38144 ft 445 kts 320°
2026-05-08 15:19 31.30963 -99.13702 38424 ft 444 kts 320°
2026-05-08 15:19 31.33698 -99.15372 38716 ft 443 kts 320°
2026-05-08 15:20 31.36430 -99.17041 38945 ft 443 kts 320°
2026-05-08 15:20 31.39160 -99.18710 39152 ft 443 kts 320°
2026-05-08 15:20 31.41879 -99.20375 39349 ft 443 kts 320°
2026-05-08 15:20 31.44612 -99.22050 39562 ft 443 kts 320°
2026-05-08 15:21 31.47334 -99.23719 39829 ft 442 kts 321°
2026-05-08 15:21 31.50063 -99.25393 39993 ft 443 kts 321°
2026-05-08 15:21 31.55557 -99.28773 39982 ft 447 kts 321°
2026-05-08 15:22 31.61045 -99.32142 39973 ft 442 kts 321°
2026-05-08 15:22 31.66475 -99.35479 39981 ft 439 kts 320°
2026-05-08 15:23 31.71825 -99.38778 40028 ft 436 kts 320°
2026-05-08 15:23 31.77186 -99.42091 40040 ft 435 kts 320°
2026-05-08 15:24 31.82537 -99.45401 40038 ft 434 kts 320°
2026-05-08 15:24 31.87885 -99.48714 40045 ft 435 kts 321°
2026-05-08 15:25 31.93253 -99.52044 40034 ft 437 kts 321°
2026-05-08 15:25 31.98644 -99.55391 40019 ft 439 kts 321°
2026-05-08 15:26 32.03153 -99.58195 40002 ft 442 kts 321°
2026-05-08 15:26 32.08601 -99.61584 39980 ft 444 kts 321°
2026-05-08 15:27 32.14068 -99.64989 39971 ft 445 kts 321°
2026-05-08 15:27 32.20429 -99.68957 39968 ft 445 kts 321°
2026-05-08 15:28 32.25017 -99.71823 40001 ft 445 kts 322°
2026-05-08 15:28 32.30502 -99.75255 39968 ft 446 kts 322°
2026-05-08 15:29 32.35968 -99.78678 39985 ft 444 kts 322°
2026-05-08 15:29 32.41384 -99.82076 39986 ft 442 kts 322°
2026-05-08 15:30 32.46811 -99.85486 39983 ft 441 kts 322°
2026-05-08 15:30 32.52205 -99.88912 40011 ft 440 kts 322°
2026-05-08 15:31 32.57574 -99.92375 39984 ft 439 kts 322°
2026-05-08 15:31 32.62940 -99.95845 39981 ft 440 kts 322°
2026-05-08 15:32 32.68313 -99.99318 39953 ft 440 kts 322°
2026-05-08 15:32 32.73691 -100.02795 39930 ft 441 kts 322°
2026-05-08 15:33 32.79082 -100.06285 39941 ft 442 kts 322°
2026-05-08 15:33 32.84444 -100.09761 39940 ft 442 kts 322°
2026-05-08 15:34 32.89857 -100.13274 39928 ft 443 kts 322°
2026-05-08 15:34 32.95263 -100.16787 39929 ft 443 kts 322°
2026-05-08 15:35 33.00680 -100.20313 39931 ft 444 kts 322°
2026-05-08 15:35 33.06099 -100.23846 39933 ft 444 kts 322°
2026-05-08 15:36 33.11521 -100.27385 39926 ft 444 kts 322°
2026-05-08 15:36 33.16936 -100.30924 39920 ft 444 kts 322°
2026-05-08 15:37 33.22350 -100.34469 39920 ft 443 kts 322°
2026-05-08 15:37 33.27721 -100.37989 39931 ft 443 kts 322°
2026-05-08 15:38 33.33163 -100.41562 39922 ft 443 kts 322°
2026-05-08 15:38 33.38530 -100.45091 39918 ft 443 kts 322°
2026-05-08 15:39 33.43921 -100.48639 39918 ft 443 kts 322°
2026-05-08 15:39 33.49314 -100.52195 39919 ft 442 kts 322°
2026-05-08 15:40 33.54713 -100.55760 39920 ft 443 kts 322°
2026-05-08 15:40 33.60101 -100.59323 39908 ft 442 kts 322°
2026-05-08 15:41 33.65489 -100.62890 39912 ft 442 kts 322°
2026-05-08 15:41 33.70866 -100.66456 39913 ft 441 kts 322°
2026-05-08 15:42 33.76204 -100.70001 39943 ft 441 kts 322°
2026-05-08 15:42 33.81585 -100.73580 39915 ft 442 kts 322°
2026-05-08 15:43 33.86958 -100.77158 39908 ft 441 kts 322°
2026-05-08 15:43 33.92324 -100.80737 39908 ft 441 kts 322°
2026-05-08 15:44 33.97692 -100.84322 39902 ft 440 kts 322°
2026-05-08 15:44 34.03048 -100.87905 39910 ft 440 kts 322°
2026-05-08 15:45 34.08399 -100.91489 39903 ft 440 kts 322°
2026-05-08 15:45 34.13746 -100.95077 39905 ft 439 kts 322°
2026-05-08 15:46 34.19080 -100.98659 39898 ft 438 kts 321°
2026-05-08 15:46 34.24406 -101.02243 39931 ft 438 kts 322°
2026-05-08 15:47 34.29726 -101.05828 39906 ft 437 kts 322°
2026-05-08 15:47 34.35004 -101.09389 39898 ft 437 kts 322°
2026-05-08 15:48 34.42951 -101.14762 39898 ft 436 kts 322°
2026-05-08 15:49 34.48234 -101.18340 39921 ft 435 kts 322°
2026-05-08 15:49 34.53512 -101.21921 39901 ft 435 kts 322°
2026-05-08 15:50 34.58782 -101.25500 39888 ft 434 kts 322°
2026-05-08 15:50 34.64046 -101.29080 39893 ft 433 kts 322°
2026-05-08 15:51 34.69299 -101.32659 39884 ft 433 kts 323°
2026-05-08 15:51 34.74546 -101.36240 39903 ft 433 kts 323°
2026-05-08 15:52 34.79794 -101.39826 39890 ft 433 kts 323°
2026-05-08 15:52 34.85044 -101.43418 39896 ft 433 kts 323°
2026-05-08 15:53 34.90290 -101.47014 39888 ft 433 kts 323°
2026-05-08 15:53 34.95542 -101.50618 39930 ft 433 kts 323°
2026-05-08 15:54 35.00800 -101.54233 39894 ft 434 kts 324°
2026-05-08 15:54 35.06061 -101.57854 39887 ft 434 kts 324°
2026-05-08 15:55 35.11275 -101.61449 39886 ft 434 kts 324°
2026-05-08 15:55 35.16525 -101.65074 40019 ft 434 kts 324°
2026-05-08 15:55 35.19153 -101.66890 40050 ft 434 kts 324°
2026-05-08 15:56 35.24458 -101.70429 40020 ft 438 kts 330°
2026-05-08 15:56 35.30161 -101.73136 40012 ft 441 kts 333°
2026-05-08 15:57 35.35924 -101.75684 39993 ft 440 kts 333°
2026-05-08 15:57 35.41667 -101.78265 39955 ft 439 kts 333°
2026-05-08 15:58 35.47375 -101.80879 39932 ft 438 kts 333°
2026-05-08 15:58 35.53078 -101.83513 39903 ft 437 kts 333°
2026-05-08 15:59 35.58735 -101.86132 39922 ft 437 kts 333°
2026-05-08 15:59 35.64427 -101.88771 39940 ft 437 kts 333°
2026-05-08 16:00 35.70121 -101.91415 39969 ft 438 kts 332°
2026-05-08 16:00 35.75813 -101.94060 39995 ft 437 kts 332°
2026-05-08 16:01 35.81506 -101.96710 40001 ft 437 kts 332°
2026-05-08 16:01 35.87200 -101.99365 39895 ft 437 kts 332°
2026-05-08 16:02 35.92885 -102.02019 39901 ft 438 kts 332°
2026-05-08 16:02 35.98576 -102.04681 39886 ft 437 kts 333°
2026-05-08 16:03 36.04226 -102.07324 39894 ft 437 kts 333°
2026-05-08 16:03 36.09903 -102.09983 39887 ft 436 kts 333°
2026-05-08 16:04 36.15569 -102.12653 39917 ft 435 kts 333°
2026-05-08 16:04 36.21214 -102.15322 39894 ft 434 kts 333°
2026-05-08 16:05 36.26844 -102.17967 39888 ft 431 kts 333°
2026-05-08 16:05 36.32440 -102.20603 39891 ft 429 kts 333°
2026-05-08 16:06 36.38014 -102.23236 39914 ft 428 kts 333°
2026-05-08 16:06 36.43555 -102.25860 39899 ft 426 kts 333°
2026-05-08 16:07 36.49091 -102.28485 39901 ft 425 kts 333°
2026-05-08 16:07 36.54576 -102.31091 39900 ft 424 kts 333°
2026-05-08 16:08 36.60084 -102.33711 39942 ft 424 kts 333°
2026-05-08 16:08 36.65592 -102.36327 39908 ft 423 kts 333°
2026-05-08 16:09 36.70191 -102.38522 39900 ft 422 kts 333°
2026-05-08 16:09 36.76543 -102.41562 39886 ft 419 kts 334°
2026-05-08 16:10 36.81982 -102.44166 39897 ft 417 kts 334°
2026-05-08 16:10 36.87400 -102.46764 39899 ft 417 kts 334°
2026-05-08 16:11 36.92811 -102.49361 39902 ft 416 kts 334°
2026-05-08 16:11 36.98219 -102.51962 39909 ft 416 kts 334°
2026-05-08 16:12 37.03592 -102.54549 39904 ft 417 kts 334°
2026-05-08 16:12 37.09012 -102.57163 39912 ft 418 kts 334°
2026-05-08 16:13 37.14439 -102.59784 39908 ft 419 kts 334°
2026-05-08 16:13 37.19880 -102.62416 39910 ft 420 kts 334°
2026-05-08 16:14 37.25328 -102.65055 39918 ft 420 kts 334°
2026-05-08 16:14 37.30794 -102.67708 39923 ft 421 kts 334°
2026-05-08 16:15 37.36254 -102.70361 39927 ft 420 kts 334°
2026-05-08 16:15 37.41701 -102.73012 39931 ft 419 kts 334°
2026-05-08 16:16 37.47139 -102.75663 39931 ft 418 kts 334°
2026-05-08 16:16 37.52519 -102.78295 39945 ft 416 kts 335°
2026-05-08 16:17 37.56991 -102.80634 39941 ft 414 kts 333°
2026-05-08 16:17 37.63128 -102.83960 39948 ft 412 kts 333°
2026-05-08 16:18 37.68395 -102.86807 39955 ft 411 kts 333°
2026-05-08 16:18 37.73648 -102.89635 39956 ft 410 kts 334°
2026-05-08 16:19 37.78902 -102.92462 39960 ft 410 kts 334°
2026-05-08 16:19 37.84121 -102.95274 39959 ft 410 kts 334°
2026-05-08 16:20 37.89373 -102.98108 39962 ft 411 kts 333°
2026-05-08 16:20 37.94637 -103.00952 40003 ft 412 kts 333°
2026-05-08 16:21 37.99913 -103.03809 39994 ft 413 kts 333°
2026-05-08 16:21 38.05193 -103.06671 39981 ft 413 kts 333°
2026-05-08 16:22 38.09583 -103.09054 39976 ft 413 kts 333°
2026-05-08 16:22 38.15760 -103.12413 39984 ft 413 kts 333°
2026-05-08 16:23 38.21030 -103.15280 39982 ft 411 kts 334°
2026-05-08 16:23 38.26236 -103.18127 39967 ft 409 kts 334°
2026-05-08 16:24 38.31450 -103.20975 39955 ft 407 kts 334°
2026-05-08 16:24 38.36641 -103.23814 39955 ft 405 kts 334°
2026-05-08 16:25 38.41814 -103.26658 39966 ft 404 kts 334°
2026-05-08 16:25 38.46957 -103.29503 39957 ft 402 kts 334°
2026-05-08 16:26 38.51215 -103.31863 39955 ft 401 kts 334°
2026-05-08 16:26 38.56334 -103.34702 39961 ft 400 kts 334°
2026-05-08 16:27 38.58900 -103.36127 39635 ft 406 kts 334°
2026-05-08 16:27 38.62320 -103.38029 38954 ft 403 kts 335°
2026-05-08 16:27 38.64048 -103.38989 38628 ft 399 kts 335°
2026-05-08 16:27 38.67426 -103.40868 37488 ft 398 kts 335°
2026-05-08 16:28 38.69139 -103.41822 37039 ft 396 kts 335°
2026-05-08 16:28 38.71650 -103.43222 36388 ft 392 kts 335°
2026-05-08 16:28 38.74141 -103.44612 35672 ft 390 kts 335°
2026-05-08 16:28 38.76600 -103.45984 34887 ft 391 kts 336°
2026-05-08 16:29 38.79091 -103.47378 34075 ft 391 kts 335°
2026-05-08 16:29 38.81447 -103.49120 33152 ft 392 kts 324°
2026-05-08 16:29 38.83425 -103.51495 32552 ft 388 kts 315°
2026-05-08 16:29 38.85223 -103.54051 31903 ft 384 kts 315°
2026-05-08 16:30 38.86982 -103.56593 31293 ft 379 kts 315°
2026-05-08 16:30 38.88727 -103.59110 30687 ft 375 kts 315°
2026-05-08 16:30 38.90460 -103.61594 30089 ft 372 kts 315°
2026-05-08 16:30 38.92184 -103.64053 29406 ft 369 kts 315°
2026-05-08 16:31 38.93899 -103.66492 28776 ft 366 kts 315°
2026-05-08 16:31 38.95603 -103.68914 28143 ft 364 kts 315°
2026-05-08 16:31 38.97298 -103.71323 27514 ft 363 kts 315°
2026-05-08 16:31 38.98966 -103.73694 26901 ft 361 kts 315°
2026-05-08 16:32 39.00632 -103.76067 26292 ft 356 kts 315°
2026-05-08 16:32 39.02287 -103.78426 25681 ft 352 kts 315°
2026-05-08 16:32 39.03920 -103.80755 25087 ft 349 kts 314°
2026-05-08 16:32 39.05539 -103.83066 24489 ft 346 kts 314°
2026-05-08 16:33 39.07143 -103.85358 23877 ft 344 kts 314°
2026-05-08 16:33 39.08740 -103.87639 23177 ft 341 kts 315°
2026-05-08 16:33 39.10319 -103.89897 22537 ft 338 kts 314°
2026-05-08 16:33 39.11879 -103.92131 22071 ft 331 kts 314°
2026-05-08 16:34 39.13391 -103.94304 21747 ft 324 kts 314°
2026-05-08 16:34 39.14888 -103.96472 21390 ft 326 kts 314°
2026-05-08 16:34 39.16409 -103.98679 20999 ft 332 kts 314°
2026-05-08 16:34 39.17952 -104.00921 20606 ft 335 kts 314°
2026-05-08 16:35 39.19496 -104.03169 20211 ft 335 kts 313°
2026-05-08 16:35 39.21040 -104.05416 19813 ft 334 kts 313°
2026-05-08 16:35 39.22557 -104.07626 19411 ft 334 kts 313°
2026-05-08 16:35 39.24094 -104.09865 19021 ft 333 kts 313°
2026-05-08 16:36 39.25632 -104.12107 18633 ft 334 kts 313°
2026-05-08 16:36 39.27170 -104.14350 18218 ft 332 kts 313°
2026-05-08 16:36 39.28680 -104.16555 17776 ft 324 kts 313°
2026-05-08 16:36 39.29971 -104.18910 17284 ft 321 kts 299°
2026-05-08 16:37 39.30694 -104.21587 16889 ft 313 kts 287°
2026-05-08 16:37 39.31141 -104.24309 16529 ft 307 kts 285°
2026-05-08 16:37 39.31541 -104.26994 16157 ft 300 kts 285°
2026-05-08 16:37 39.31928 -104.29587 15803 ft 289 kts 285°
2026-05-08 16:38 39.32313 -104.32114 15474 ft 285 kts 286°
2026-05-08 16:38 39.32707 -104.34632 15153 ft 287 kts 286°
2026-05-08 16:38 39.33109 -104.37168 14823 ft 289 kts 286°
2026-05-08 16:38 39.33512 -104.39718 14483 ft 289 kts 286°
2026-05-08 16:39 39.33910 -104.42236 14142 ft 285 kts 286°
2026-05-08 16:39 39.34302 -104.44724 13804 ft 281 kts 286°
2026-05-08 16:39 39.34688 -104.47181 13450 ft 275 kts 285°
2026-05-08 16:39 39.35060 -104.49556 13103 ft 264 kts 285°
2026-05-08 16:40 39.35418 -104.51847 12803 ft 258 kts 285°
2026-05-08 16:40 39.35771 -104.54103 12505 ft 253 kts 285°
2026-05-08 16:40 39.36114 -104.56302 12209 ft 245 kts 285°
2026-05-08 16:40 39.36445 -104.58399 11968 ft 236 kts 287°
2026-05-08 16:41 39.37076 -104.60279 11910 ft 225 kts 304°
2026-05-08 16:41 39.37894 -104.61989 11943 ft 223 kts 304°
2026-05-08 16:41 39.38768 -104.63640 11943 ft 223 kts 317°
2026-05-08 16:42 39.41400 -104.65743 11973 ft 226 kts 332°
2026-05-08 16:42 39.42871 -104.66446 11961 ft 227 kts 347°
2026-05-08 16:42 39.44456 -104.66572 11978 ft 231 kts 357°
2026-05-08 16:42 39.46068 -104.66509 11974 ft 233 kts 358°
2026-05-08 16:43 39.47619 -104.66473 11960 ft 232 kts 357°
2026-05-08 16:43 39.49226 -104.66455 11898 ft 234 kts 356°
2026-05-08 16:43 39.50866 -104.66438 11603 ft 235 kts 357°
2026-05-08 16:43 39.52500 -104.66418 11294 ft 233 kts 357°
2026-05-08 16:44 39.54107 -104.66398 10990 ft 227 kts 357°
2026-05-08 16:44 39.55637 -104.66379 10713 ft 218 kts 357°
2026-05-08 16:44 39.57142 -104.66361 10422 ft 209 kts 357°
2026-05-08 16:44 39.58555 -104.66344 10137 ft 202 kts 357°
2026-05-08 16:45 39.59941 -104.66328 9866 ft 196 kts 357°
2026-05-08 16:45 39.61285 -104.66312 9602 ft 190 kts 358°
2026-05-08 16:45 39.62600 -104.66297 9372 ft 190 kts 358°
2026-05-08 16:45 39.63932 -104.66282 9111 ft 192 kts 358°
2026-05-08 16:46 39.65264 -104.66265 8854 ft 190 kts 358°
2026-05-08 16:46 39.66589 -104.66250 8612 ft 191 kts 358°
2026-05-08 16:46 39.67931 -104.66234 8362 ft 194 kts 359°
2026-05-08 16:46 39.69279 -104.66217 8096 ft 191 kts 359°
2026-05-08 16:47 39.70557 -104.66201 7838 ft 176 kts 359°
2026-05-08 16:47 39.71737 -104.66187 7619 ft 162 kts 359°
2026-05-08 16:47 39.72798 -104.66174 7453 ft 144 kts 359°
2026-05-08 16:47 39.73772 -104.66163 7253 ft 137 kts 359°
2026-05-08 16:48 39.74739 -104.66152 7071 ft 140 kts 359°
2026-05-08 16:48 39.75714 -104.66141 6877 ft 141 kts 359°
2026-05-08 16:48 39.76692 -104.66130 6703 ft 140 kts 359°
2026-05-08 16:48 39.77656 -104.66126 6521 ft 141 kts 359°
2026-05-08 16:49 39.78654 -104.66108 6324 ft 142 kts 359°
2026-05-08 16:49 39.79636 -104.66093 6141 ft 145 kts 359°
2026-05-08 16:49 39.80635 -104.66078 5955 ft 142 kts 359°
2026-05-08 16:49 39.81613 -104.66062 5742 ft 140 kts 358°
2026-05-08 16:50 39.82588 -104.66055 5533 ft 139 kts 358°
2026-05-08 16:50 39.83520 -104.66047 5423 ft 124 kts
2026-05-08 16:50 39.84269 -104.66037 5415 ft 92 kts
2026-05-08 16:50 39.84784 -104.66029 5404 ft 58 kts
2026-05-08 16:51 39.85164 -104.66075 5396 ft 52 kts 342°
2026-05-08 16:51 39.85364 -104.66205 5394 ft 20 kts 334°
2026-05-08 16:51 39.85498 -104.66232 5393 ft 19 kts 356°
2026-05-08 16:51 39.85631 -104.66236 5392 ft 19 kts
2026-05-08 16:52 39.85769 -104.66234 5388 ft 21 kts
2026-05-08 16:52 39.85920 -104.66232 5385 ft 21 kts
2026-05-08 16:52 39.86051 -104.66229 5385 ft 15 kts
2026-05-08 16:52 39.86107 -104.66327 5378 ft 16 kts 270°
2026-05-08 16:53 39.86125 -104.66606 5373 ft 15 kts 279°
2026-05-08 16:53 39.86129 -104.66738 5377 ft 14 kts 271°
2026-05-08 16:53 39.86129 -104.66865 5376 ft 14 kts 269°
2026-05-08 16:54 39.86146 -104.66941 5374 ft 8 kts 328°
2026-05-08 16:54 39.86204 -104.66949 5372 ft 8 kts
2026-05-08 16:54 39.86238 -104.66949 5375 ft 3 kts 360°
2026-05-08 16:54 39.86249 -104.66949 5373 ft 1 kts 360°
2026-05-08 16:55 39.86254 -104.66949 5375 ft 0 kts 360°